Airfield :
LOGIN :

Register | Disclaimer

   EN    FR    IT 

 










Legend :    VFR   Marginal VFR   IFR   Intensive IFR   Very Intensive IFR
Visi :
Ceiling :
>= 8 km
>= 3000ft
5 to 8 km
1000 to 3000 ft
1500m to 5 km
500 to 1000 ft
800 to 1500m
200 to 500 ft
< 800m
< 200 ft
Symbols :   Thunderstorms  Fog  Heavy snow  Heavy precipitations  Wind > 20 kt
SIGMETs :     Misc.  Thunderstorms  Icing  Turbulence  Mountain Waves  Volcanic Ashes







- Airport Elevation : 1400 ft


LSME - Luzern Emmen

CURRENT METAR :
  • 170250Z AUTO 00000KT 0500NDV R04/0600N R22/0650N FG VV001 01/01 Q1017 RMK

EXPIRED METARs :
  • 170220Z AUTO 00000KT 0450NDV R04/0550N R22/0700N FG VV001 01/01 Q1016 RMK
  • 170150Z AUTO 00000KT 0450NDV R04/0600N R22/0700N FG VV001 01/01 Q1016 RMK
  • 170120Z AUTO 00000KT 0600NDV R04/0800N R22/0900N FG OVC002 01/01 Q1016 RMK
  • 170050Z AUTO 00000KT 0450NDV R04/0550N R22/0900U FG OVC002 01/01 Q1016 RMK
  • 170020Z AUTO 00000KT 0500NDV R04/0650U R22/0500V0650N FG VV001 01/01 Q1015 RMK

Expired Forecast.
No reported NOTAMs for that airfield.



MET'MAP, your aeronautical weather chart ! - Copyright ORBIFLY December 2007 - Disclaimer

ORBIFLY MET'MAP TEAM :

Programming & Development : Alexandra Zaïnal
Concept & Development : Baudouin d'Aumeries
Co-Development & Prog : Marc-Olivier Méhu
Technical & hardware support : Manuel Goepfert

Contact : metmap@orbifly.com




SOURCES & CREDITS :

   NOAA